BMCB-17 Weather Reports


time (UTC)temp
C
wind
direction
speed
KPH
gust
KPH
rain 1hr
cm
rain 24hr
cm
rain mn
cm
humidity
%
barometer
mb
20260507140104 13 0 0.0 0.0 0.00 0.03 0.03 63 1015.3
20260507135058 13 0 0.0 0.0 0.00 0.03 0.03 64 1015.3
20260507134059 13 0 0.0 0.0 0.00 0.03 0.03 65 1015.3
20260507133101 13 0 0.0 0.0 0.00 0.03 0.03 65 1015.3
20260507132058 13 0 0.0 0.0 0.00 0.03 0.03 66 1015.3
20260507131058 13 0 0.0 0.0 0.00 0.03 0.03 67 1015.4
20260507130059 12 0 0.0 0.0 0.00 0.03 0.03 68 1015.4
20260507125057 12 0 0.0 0.0 0.00 0.03 0.03 68 1015.4
20260507124101 12 0 0.0 0.0 0.00 0.03 0.03 69 1015.4
20260507123059 12 0 0.0 0.0 0.00 0.03 0.03 69 1015.4
20260507122058 12 0 0.0 0.0 0.00 0.03 0.03 70 1015.5
20260507115059 12 0 0.0 0.0 0.00 0.03 0.03 72 1015.5
20260507113058 12 0 0.0 0.0 0.00 0.03 0.03 74 1015.5
20260507111101 12 0 0.0 0.0 0.00 0.03 0.03 74 1015.5
20260507110058 12 0 0.0 0.0 0.00 0.03 0.03 72 1015.5
20260507105058 12 0 0.0 0.0 0.00 0.03 0.03 71 1015.5
20260507104057 12 0 0.0 0.0 0.00 0.03 0.03 73 1015.6
20260507103059 11 0 0.0 0.0 0.00 0.03 0.03 75 1015.6
20260507102057 11 0 0.0 0.0 0.00 0.03 0.03 75 1015.6
20260507101059 11 0 0.0 0.0 0.00 0.03 0.03 76 1015.7
20260507100059 11 0 0.0 0.0 0.00 0.05 0.03 76 1015.6
20260507095056 11 0 0.0 0.0 0.00 0.05 0.03 77 1015.5
20260507094058 11 0 0.0 0.0 0.00 0.05 0.03 77 1015.5
20260507093057 11 0 0.0 0.0 0.00 0.05 0.03 78 1015.5
20260507092058 11 0 0.0 0.0 0.00 0.08 0.03 77 1015.4
20260507091057 11 0 0.0 0.0 0.00 0.10 0.03 77 1015.4
20260507090058 10 0 0.0 0.0 0.00 0.10 0.03 77 1015.4
20260507085058 10 0 0.0 0.0 0.00 0.13 0.03 77 1015.4
20260507084058 10 0 0.0 0.0 0.00 0.13 0.03 79 1015.3
20260507083059 10 0 0.0 0.0 0.00 0.13 0.03 81 1015.3
20260507082057 10 0 0.0 0.0 0.00 0.13 0.03 83 1015.2
20260507081058 10 0 0.0 0.0 0.00 0.13 0.03 84 1015.2
20260507075059 9 0 0.0 0.0 0.00 0.15 0.03 88 1015.1
20260507074058 9 0 0.0 0.0 0.00 0.15 0.03 90 1015.1
20260507073059 8 0 0.0 0.0 0.00 0.15 0.03 92 1015.0
20260507072057 8 0 0.0 0.0 0.00 0.15 0.03 93 1015.0
20260507071058 8 0 0.0 0.0 0.00 0.15 0.03 95 1015.0
20260507065055 8 0 0.0 0.0 0.00 0.15 0.03 96 1014.9
20260507064055 8 0 0.0 0.0 0.00 0.18 0.03 97 1014.8
20260507063054 8 0 0.0 0.0 0.00 0.18 0.03 97 1014.7
20260507062057 7 0 0.0 0.0 0.00 0.20 0.03 98 1014.7
20260507061058 7 0 0.0 0.0 0.00 0.23 0.03 98 1014.6
20260507060055 7 0 0.0 0.0 0.00 0.23 0.03 99 1014.5
20260507055053 7 0 0.0 0.0 0.00 0.25 0.03 10 1014.4
20260507054056 7 0 0.0 0.0 0.00 0.30 0.03 10 1014.3
20260507053054 7 0 0.0 0.0 0.00 0.33 0.03 10 1014.3
20260507051057 7 0 0.0 0.0 0.00 0.36 0.03 10 1014.1
20260507050056 6 0 0.0 0.0 0.00 0.38 0.03 10 1014.0
20260507045056 6 0 0.0 0.0 0.00 0.41 0.03 10 1013.9
20260507044058 6 0 0.0 0.0 0.00 0.43 0.03 10 1013.8
20260507043057 6 0 0.0 0.0 0.00 0.43 0.03 10 1013.8
20260507042056 6 0 0.0 0.0 0.03 0.46 0.03 10 1013.7
20260507041055 6 0 0.0 0.0 0.03 0.48 0.03 10 1013.7
20260507040058 6 0 0.0 0.0 0.03 0.51 0.03 10 1013.6
20260507035056 6 0 0.0 0.0 0.03 0.51 0.03 10 1013.6
20260507034056 6 0 0.0 0.0 0.03 0.51 0.03 10 1013.5
20260507033055 6 0 0.0 0.0 0.03 0.51 0.03 10 1013.5
20260507032057 6 0 0.0 0.0 0.03 0.53 0.03 10 1013.4
20260507031056 6 0 0.0 0.0 0.00 0.51 0.00 10 1013.4
20260507025055 6 0 0.0 0.0 0.00 0.53 0.00 10 1013.4
20260507024055 6 0 0.0 0.0 0.00 0.53 0.00 10 1013.3
20260507022057 6 0 0.0 0.0 0.00 0.58 0.00 10 1013.2
20260507021056 6 0 0.0 0.0 0.00 0.61 0.00 10 1013.2
20260507020056 7 0 0.0 0.0 0.00 0.61 0.00 10 1013.1
20260507015054 6 0 0.0 0.0 0.00 0.61 0.00 10 1013.0
20260507013054 7 0 0.0 0.0 0.00 0.66 0.00 10 1012.9
20260507011058 7 0 0.0 0.0 0.00 0.69 0.00 10 1012.9
20260507010059 7 0 0.0 0.0 0.00 0.71 0.00 10 1012.8
20260507005056 7 0 0.0 0.0 0.00 0.71 0.00 10 1012.8
20260507003056 7 0 0.0 0.0 0.00 0.76 0.00 10 1012.8
20260507002057 7 0 0.0 0.0 0.00 0.79 0.00 10 1012.7
20260507001056 7 0 0.0 0.0 0.00 0.79 0.00 99 1012.7
20260507000100 7 0 0.0 0.0 0.00 0.79 0.00 99 1012.7
20260506235101 7 0 0.0 0.0 0.00 0.81 0.00 99 1012.6
20260506233100 7 0 0.0 0.0 0.00 0.84 0.00 98 1012.5
20260506232058 7 0 0.0 0.0 0.00 0.86 0.00 98 1012.4
20260506231059 6 0 0.0 0.0 0.00 0.86 0.00 98 1012.4
20260506230100 6 0 0.0 0.0 0.00 0.89 0.00 98 1012.4
20260506224059 6 0 0.0 0.0 0.00 0.89 0.00 97 1012.3
20260506223059 6 0 0.0 0.0 0.00 0.89 0.00 97 1012.2
20260506222100 6 0 0.0 0.0 0.00 0.91 0.00 96 1012.0
20260506221059 6 0 0.0 0.0 0.00 0.91 0.00 95 1012.0
20260506220106 7 0 0.0 0.0 0.00 0.94 0.00 95 1012.0
20260506215103 7 0 0.0 0.0 0.00 0.94 0.94 94 1011.9
20260506214102 7 0 0.0 0.0 0.00 0.97 0.94 93 1011.9
20260506213100 7 0 0.0 0.0 0.00 0.97 0.94 91 1011.8
20260506212102 7 0 0.0 0.0 0.00 0.99 0.94 91 1011.7
20260506211104 8 0 0.0 0.0 0.00 0.99 0.94 90 1011.6
20260506205101 8 0 0.0 0.0 0.00 1.04 0.94 88 1011.4
20260506204101 8 0 0.0 0.0 0.00 1.07 0.94 88 1011.2
20260506203104 8 0 0.0 0.0 0.00 1.09 0.94 87 1011.1
20260506202102 8 0 0.0 0.0 0.00 1.09 0.94 85 1011.0
20260506201108 8 0 0.0 0.0 0.00 1.09 0.94 85 1010.9
20260506195102 9 0 0.0 0.0 0.00 1.12 0.94 88 1010.7
20260506194103 9 0 0.0 0.0 0.00 1.12 0.94 94 1010.7
20260506193102 9 0 0.0 0.0 0.00 1.14 0.94 94 1010.5
20260506191100 9 0 0.0 0.0 0.00 1.14 0.94 94 1010.3
20260506190103 9 0 0.0 0.0 0.00 1.17 0.94 94 1010.2
20260506185102 10 0 0.0 0.0 0.00 1.17 0.94 93 1010.1
20260506184059 10 0 0.0 0.0 0.00 1.17 0.94 92 1010.0
20260506182102 10 0 0.0 0.0 0.00 1.19 0.94 91 1009.8
20260506181100 10 0 0.0 0.0 0.00 1.19 0.94 90 1009.6
20260506174100 10 0 0.0 0.0 0.00 1.27 0.94 89 1009.3
20260506173059 10 0 0.0 0.0 0.00 1.27 0.94 90 1009.2
20260506172101 10 0 0.0 0.0 0.00 1.27 0.94 93 1009.1
20260506171100 10 0 0.0 0.0 0.00 1.27 0.94 94 1009.0
20260506170058 10 0 0.0 0.0 0.00 1.27 0.94 95 1009.0
20260506165057 10 0 0.0 0.0 0.00 1.27 0.94 94 1008.9
20260506164059 10 0 0.0 0.0 0.00 1.27 0.94 95 1008.8
20260506163059 10 0 0.0 0.0 0.00 1.27 0.94 93 1008.9
20260506162101 10 0 0.0 0.0 0.00 1.27 0.94 92 1008.9
20260506160057 10 0 0.0 0.0 0.00 1.27 0.94 94 1008.9
20260506155059 10 0 0.0 0.0 0.00 1.27 0.94 94 1008.9
20260506154101 11 0 0.0 0.0 0.00 1.27 0.94 92 1008.9
20260506151101 10 0 0.0 0.0 0.00 1.27 0.94 92 1008.9
20260506150058 10 0 0.0 0.0 0.00 1.27 0.94 92 1008.9
20260506145059 10 0 0.0 0.0 0.00 1.27 0.94 91 1008.8
20260506143057 11 0 0.0 0.0 0.00 1.27 0.94 91 1008.7
20260506142058 10 0 0.0 0.0 0.00 1.27 0.94 94 1008.8
20260506141057 10 0 0.0 0.0 0.00 1.27 0.94 93 1008.9